Binghamton, NY

11:02 PM EDT on August 21, 2017 (GMT -0400)
Binghamton Regional-Link

Weather History for KBGM - May, 2013

Change the Weather History Date:

Saturday, May 4, 2013

  Actual Average Record
Temperature  
Mean Temperature 59 °F 52 °F  
Max Temperature 72 °F 62 °F 85 °F (1955)
Min Temperature 45 °F 42 °F 30 °F (1986)
Degree Days  
Heating Degree Days 6 13  
Month to date heating degree days 22 55  
Since 1 July heating degree days 6596 6854  
Cooling Degree Days 0 0  
Month to date cooling degree days 0 0  
Year to date cooling degree days 0 4  
Growing Degree Days 8 (Base 50)    
Moisture  
Dew Point 34 °F    
Average Humidity 45    
Maximum Humidity 62    
Minimum Humidity 27    
Precipitation  
Precipitation 0.00 in 0.11 in 0.92 in (1990)
Month to date precipitation 0.00 0.43  
Year to date precipitation 9.79 11.61  
Snow  
Snow 0.00 in 0.10 in T in (2005)
Month to date snowfall 0.0 0.1  
Since 1 July snowfall 69.1 83.4  
Snow Depth 0.00 in    
Sea Level Pressure  
Sea Level Pressure 30.25 in    
Wind  
Wind Speed 4 mph (SSE)    
Max Wind Speed 13 mph    
Max Gust Speed 18 mph    
Visibility 10 miles    
Events      
T = Trace of Precipitation, MM = Missing Value Source: NWS Daily Summary

Daily Weather History Graph

Daily Weather History Graph

Search for Another Location

Airport or City:

Trip Planner

Search our weather history database for the weather conditions in past years. The results will help you decide how hot, cold, wet, or windy it might be!

Date:

Astronomy

May. 04, 2013 Rise Set
Actual Time 5:55 AM EDT 8:06 PM EDT
Civil Twilight 5:24 AM EDT 8:37 PM EDT
Nautical Twilight 4:46 AM EDT 9:15 PM EDT
Astronomical Twilight 4:04 AM EDT 9:58 PM EDT
Moon 2:58 AM EDT (5/4) 2:56 PM EDT (5/4)
Length of Visible Light 15h 13m
Length of Day
14h 11m
Waning Crescent, 27% of the Moon is Illuminated
May 4
Waning Crescent
May 9
New
May 18
First Quarter
May 25
Full
May 31
Last Quarter

Hourly Weather History & Observations

Time (EDT) Temp. Windchill Dew Point Humidity Pressure Visibility Wind Dir Wind Speed Gust Speed Precip Events Conditions
12:53 AM 52.0 °F - 26.1 °F 37% 30.32 in 10.0 mi South 3.5 mph - N/A   Clear
1:53 AM 51.1 °F - 28.0 °F 41% 30.31 in 10.0 mi South 5.8 mph - N/A   Clear
2:53 AM 48.9 °F - 28.0 °F 44% 30.30 in 10.0 mi South 3.5 mph - N/A   Clear
3:53 AM 48.9 °F - 28.9 °F 46% 30.30 in 10.0 mi Calm Calm - N/A   Clear
4:53 AM 48.0 °F - 28.9 °F 48% 30.29 in 10.0 mi Calm Calm - N/A   Clear
5:53 AM 46.0 °F 44.8 °F 28.9 °F 51% 30.29 in 10.0 mi SE 3.5 mph - N/A   Clear
6:53 AM 45.0 °F 43.5 °F 32.0 °F 60% 30.31 in 10.0 mi SE 3.5 mph - N/A   Clear
7:53 AM 50.0 °F - 33.1 °F 52% 30.31 in 10.0 mi SE 4.6 mph - N/A   Clear
8:53 AM 54.0 °F - 35.1 °F 49% 30.32 in 10.0 mi SE 6.9 mph - N/A   Clear
9:53 AM 57.0 °F - 37.0 °F 47% 30.31 in 10.0 mi Variable 5.8 mph - N/A   Clear
10:53 AM 60.1 °F - 37.9 °F 44% 30.30 in 10.0 mi SE 6.9 mph - N/A   Clear
11:53 AM 63.0 °F - 37.9 °F 40% 30.29 in 10.0 mi Variable 6.9 mph - N/A   Clear
12:53 PM 64.0 °F - 37.0 °F 37% 30.27 in 10.0 mi Calm Calm - N/A   Clear
1:53 PM 68.0 °F - 39.0 °F 35% 30.25 in 10.0 mi SSE 9.2 mph - N/A   Clear
2:53 PM 68.0 °F - 37.0 °F 32% 30.23 in 10.0 mi Calm Calm - N/A   Partly Cloudy
3:53 PM 69.1 °F - 35.1 °F 29% 30.20 in 9.0 mi Calm Calm - N/A   Clear
4:53 PM 66.9 °F - 34.0 °F 30% 30.19 in 10.0 mi SW 3.5 mph - N/A   Clear
5:53 PM 70.0 °F - 36.0 °F 29% 30.18 in 10.0 mi Calm Calm - N/A   Scattered Clouds
6:53 PM 69.1 °F - 36.0 °F 30% 30.17 in 10.0 mi SE 3.5 mph - N/A   Partly Cloudy
7:53 PM 69.1 °F - 35.1 °F 29% 30.17 in 10.0 mi Calm Calm - N/A   Scattered Clouds
8:53 PM 68.0 °F - 33.1 °F 27% 30.18 in 10.0 mi Calm Calm - N/A   Mostly Cloudy
9:53 PM 63.0 °F - 35.1 °F 35% 30.19 in 10.0 mi South 4.6 mph - N/A   Mostly Cloudy
10:53 PM 60.1 °F - 35.1 °F 39% 30.19 in 10.0 mi SSE 5.8 mph - N/A   Clear
11:53 PM 57.9 °F - 35.1 °F 42% 30.20 in 10.0 mi SSE 5.8 mph - N/A   Clear